Frankfurt, Germany

9:21 AM CEST on October 01, 2016 (GMT +0200)
Frankfurt / Main

Weather History for EDDF - July, 2013

Change the Weather History Date:

Monday, July 15, 2013

  Actual Average Record
Temperature  
Mean Temperature 69 °F -  
Max Temperature 81 °F 75 °F 95 °F (2007)
Min Temperature 57 °F 56 °F 50 °F (1998)
Cooling Degree Days 4    
Growing Degree Days 19 (Base 50)    
Moisture  
Dew Point 52 °F    
Average Humidity 55    
Maximum Humidity 82    
Minimum Humidity 22    
Precipitation  
Precipitation 0.00 in - - ()
Sea Level Pressure  
Sea Level Pressure 30.19 in    
Wind  
Wind Speed 5 mph ()    
Max Wind Speed 10 mph    
Max Gust Speed -    
Visibility 11.1 miles    
Events      
Averages and records for this station are not official NWS values.
T = Trace of Precipitation, MM = Missing Value Source: Averaged Metar Reports

Daily Weather History Graph

Daily Weather History Graph

Search for Another Location

Airport or City:

Trip Planner

Search our weather history database for the weather conditions in past years. The results will help you decide how hot, cold, wet, or windy it might be!

Date:

Astronomy

Jul. 15, 2013 Rise Set
Actual Time 5:32 AM CEST 9:29 PM CEST
Civil Twilight 4:50 AM CEST 10:11 PM CEST
Nautical Twilight 3:51 AM CEST 11:10 PM CEST
Astronomical Twilight 2:06 AM CEST 12:50 AM CEST
Moon 1:23 PM CEST (7/15) No Moon Set
Length of Visible Light 17h 20m
Length of Day
15h 56m
Waxing Crescent, 42% of the Moon is Illuminated
Jul 15
Waxing Crescent
Jul 16
First Quarter
Jul 22
Full
Jul 29
Last Quarter
Aug 6
New

Hourly Weather History & Observations

Time (CEST) Temp. Dew Point Humidity Pressure Visibility Wind Dir Wind Speed Gust Speed Precip Events Conditions
12:00 AM 65 °F 55 °F 62% 30.19 in 22 mi NNE 8.9 mph - -   Clear
12:20 AM 64.4 °F 51.8 °F 64% 30.18 in - NNE 10.4 mph - N/A   Clear
12:50 AM 64.4 °F 51.8 °F 64% 30.18 in - NNE 5.8 mph - N/A   Clear
1:00 AM 64 °F 53 °F 57% 30.19 in 22 mi NE 6.7 mph - -   Clear
1:20 AM 62.6 °F 51.8 °F 68% 30.18 in - NNE 9.2 mph - N/A   Clear
1:50 AM 62.6 °F 53.6 °F 72% 30.18 in - North 8.1 mph - N/A   Clear
2:00 AM 63 °F 53 °F 62% 30.19 in 22 mi North 8.9 mph - -   Scattered Clouds
2:20 AM 62.6 °F 53.6 °F 72% 30.18 in 6.2 mi NNE 4.6 mph - N/A   Mostly Cloudy
2:50 AM 60.8 °F 51.8 °F 72% 30.18 in 6.2 mi NNE 5.8 mph - N/A   Mostly Cloudy
3:00 AM 61 °F 53 °F 67% 30.19 in 22 mi NNE 6.7 mph - -   Scattered Clouds
3:20 AM 60.8 °F 51.8 °F 72% 30.18 in - North 8.1 mph - N/A   Clear
3:50 AM 59.0 °F 51.8 °F 77% 30.18 in - North 5.8 mph - N/A   Clear
4:00 AM 60 °F 53 °F 69% 30.20 in 22 mi North 6.7 mph - -   Clear
4:20 AM 59.0 °F 53.6 °F 82% 30.18 in - NNE 3.5 mph - N/A   Clear
4:50 AM 57.2 °F 51.8 °F 82% 30.18 in - ENE 3.5 mph - N/A   Clear
5:20 AM 57.2 °F 51.8 °F 82% 30.18 in - NNE 2.3 mph - N/A   Clear
5:50 AM 59.0 °F 53.6 °F 82% 30.21 in - NE 2.3 mph - N/A   Clear
6:00 AM 58 °F 52 °F 76% 30.20 in 22 mi NE 2.2 mph - -   Scattered Clouds
6:20 AM 59.0 °F 53.6 °F 82% 30.18 in - Variable 3.5 mph - N/A   Clear
6:50 AM 59.0 °F 53.6 °F 82% 30.21 in - ENE 3.5 mph - N/A   Clear
7:00 AM 59 °F 53 °F 75% 30.20 in 19 mi ENE 2.2 mph - -   Scattered Clouds
7:20 AM 59.0 °F 53.6 °F 82% 30.21 in - East 3.5 mph - N/A   Clear
7:50 AM 59.0 °F 53.6 °F 82% 30.21 in - East 3.5 mph - N/A   Clear
8:00 AM 60 °F 54 °F 73% 30.22 in 19 mi East 2.2 mph - -   Scattered Clouds
8:20 AM 62.6 °F 55.4 °F 77% 30.21 in - Variable 1.2 mph - N/A   Clear
8:50 AM 66.2 °F 55.4 °F 68% 30.21 in - North 2.3 mph - N/A   Clear
9:00 AM 66 °F 55 °F 58% 30.22 in 14 mi North 2.2 mph - -   Clear
9:20 AM 66.2 °F 55.4 °F 68% 30.21 in - ENE 4.6 mph - N/A   Clear
9:50 AM 68.0 °F 55.4 °F 64% 30.21 in 6.2 mi NNE 4.6 mph - N/A   Mostly Cloudy
10:00 AM 67 °F 55 °F 57% 30.22 in 14 mi NNE 4.5 mph - -   Scattered Clouds
10:20 AM 68.0 °F 55.4 °F 64% 30.21 in 6.2 mi Variable 3.5 mph - N/A   Scattered Clouds
10:50 AM 69.8 °F 55.4 °F 60% 30.21 in 6.2 mi NE 4.6 mph - N/A   Scattered Clouds
11:20 AM 71.6 °F 51.8 °F 50% 30.21 in 6.2 mi Variable 3.5 mph - N/A   Scattered Clouds
11:50 AM 71.6 °F 53.6 °F 53% 30.21 in 6.2 mi NNW 4.6 mph - N/A   Partly Cloudy
12:00 PM 72 °F 52 °F 39% 30.21 in 14 mi NNW 4.5 mph - -   Scattered Clouds
12:20 PM 73.4 °F 53.6 °F 50% 30.21 in 6.2 mi ENE 5.8 mph - N/A   Scattered Clouds
12:50 PM 73.4 °F 51.8 °F 47% 30.21 in 6.2 mi NNW 2.3 mph - N/A   Scattered Clouds
1:00 PM 74 °F 53 °F 37% 30.21 in 16 mi NNW 4.5 mph - -   Partly Cloudy
1:20 PM 73.4 °F 51.8 °F 47% 30.21 in 6.2 mi Variable 3.5 mph - N/A   Scattered Clouds
1:50 PM 75.2 °F 51.8 °F 44% 30.21 in - North 5.8 mph - N/A   Clear
2:00 PM 75 °F 52 °F 33% 30.20 in 17 mi North 6.7 mph - -   Partly Cloudy
2:20 PM 77.0 °F 51.8 °F 41% 30.21 in - NNW 4.6 mph - N/A   Clear
2:50 PM 77.0 °F 50.0 °F 39% 30.18 in - NNE 5.8 mph - N/A   Clear
3:00 PM 78 °F 52 °F 29% 30.19 in 17 mi NNE 6.7 mph - -   Partly Cloudy
3:20 PM 77.0 °F 51.8 °F 41% 30.18 in - ENE 4.6 mph - N/A   Clear
3:50 PM 77.0 °F 51.8 °F 41% 30.18 in - NW 6.9 mph - N/A   Clear
4:00 PM 77 °F 51 °F 30% 30.18 in 19 mi NW 6.7 mph - -   Partly Cloudy
4:20 PM 78.8 °F 50.0 °F 36% 30.18 in - Variable 2.3 mph - N/A   Clear
4:50 PM 78.8 °F 50.0 °F 36% 30.18 in - North 4.6 mph - N/A   Clear
5:20 PM 78.8 °F 48.2 °F 34% 30.18 in - NNE 3.5 mph - N/A   Clear
5:50 PM 80.6 °F 50.0 °F 34% 30.18 in - NW 6.9 mph - N/A   Clear
6:00 PM 81 °F 49 °F 22% 30.17 in 22 mi NW 6.7 mph - -   Scattered Clouds
6:20 PM 80.6 °F 48.2 °F 32% 30.18 in - NW 6.9 mph - N/A   Clear
6:50 PM 80.6 °F 48.2 °F 32% 30.18 in - NNW 8.1 mph - N/A   Clear
7:00 PM 80 °F 48 °F 22% 30.17 in 22 mi WNW 8.9 mph - -   Scattered Clouds
7:20 PM 80.6 °F 48.2 °F 32% 30.15 in - WNW 6.9 mph - N/A   Clear
7:50 PM 78.8 °F 48.2 °F 34% 30.18 in - NW 6.9 mph - N/A   Clear
8:00 PM 79 °F 48 °F 23% 30.17 in 22 mi NW 6.7 mph - -   Scattered Clouds
8:20 PM 78.8 °F 48.2 °F 34% 30.18 in - NNW 5.8 mph - N/A   Clear
8:50 PM 77.0 °F 48.2 °F 36% 30.15 in - WNW 6.9 mph - N/A   Clear
9:20 PM 75.2 °F 48.2 °F 38% 30.15 in - NW 5.8 mph - N/A   Clear
9:50 PM 73.4 °F 50.0 °F 44% 30.18 in - NNW 5.8 mph - N/A   Clear
10:00 PM 74 °F 49 °F 31% 30.18 in 22 mi NNW 4.5 mph - -   Scattered Clouds
10:20 PM 69.8 °F 51.8 °F 53% 30.18 in - ENE 3.5 mph - N/A   Clear
10:50 PM 68.0 °F 51.8 °F 56% 30.18 in - South 1.2 mph - N/A   Clear
11:20 PM 64.4 °F 51.8 °F 64% 30.18 in - NNE 1.2 mph - N/A   Clear
11:50 PM 62.6 °F 53.6 °F 72% 30.18 in - NE 2.3 mph - N/A   Clear